Weather History for KHHF - October, 2013

Change the Weather History Date:

Sunday, October 27, 2013

  Actual Average (KPPA) Record (KPPA)
Temperature  
Mean Temperature 52 °F -  
Max Temperature 76 °F 68 °F 90 °F (1979)
Min Temperature 28 °F 41 °F 21 °F (2012)
Degree Days  
Heating Degree Days 13    
Growing Degree Days 2 (Base 50)    
Moisture  
Dew Point 30 °F    
Average Humidity 55    
Maximum Humidity 96    
Minimum Humidity 16    
Precipitation  
Precipitation 0.00 in - - ()
Sea Level Pressure  
Sea Level Pressure 30.06 in    
Wind  
Wind Speed 4 mph (SSW)    
Max Wind Speed 18 mph    
Max Gust Speed 28 mph    
Visibility 10 miles    
Events      
Averages and records for this station are not official NWS values.
T = Trace of Precipitation, MM = Missing Value Source: NWS Daily Summary

Daily Weather History Graph

Daily Weather History Graph

Search for Another Location

Airport or City:

Trip Planner

Search our weather history database for the weather conditions in past years. The results will help you decide how hot, cold, wet, or windy it might be!

Date:

Astronomy

Oct. 27, 2013 Rise Set
Actual Time 7:59 AM CDT 6:50 PM CDT
Civil Twilight 7:33 AM CDT 7:17 PM CDT
Nautical Twilight 7:03 AM CDT 7:47 PM CDT
Astronomical Twilight 6:33 AM CDT 8:16 PM CDT
Moon 1:11 AM CDT (10/27) 2:49 PM CDT (10/27)
Length of Visible Light 11h 43m
Length of Day
10h 51m
Last Quarter, 43% of the Moon is Illuminated
Oct 27
Last Quarter
Nov 3
New
Nov 9
First Quarter
Nov 17
Full
Nov 25
Last Quarter

Hourly Weather History & Observations

Time (CDT) Temp. Windchill Dew Point Humidity Pressure Visibility Wind Dir Wind Speed Gust Speed Precip Events Conditions
12:15 AM 36.0 °F - 33.3 °F 90% 30.22 in 10.0 mi Calm Calm - N/A   Clear
12:35 AM 36.5 °F - 33.6 °F 89% 30.22 in 10.0 mi Calm Calm - N/A   Clear
12:55 AM 35.6 °F - 32.9 °F 90% 30.21 in 10.0 mi Calm Calm - N/A   Clear
1:15 AM 32.4 °F - 30.4 °F 92% 30.21 in 10.0 mi Calm Calm - N/A   Clear
1:35 AM 33.6 °F - 32.0 °F 94% 30.21 in 10.0 mi Calm Calm - N/A   Clear
1:55 AM 30.4 °F 26.9 °F 28.4 °F 92% 30.21 in 10.0 mi SW 3.5 mph - N/A   Clear
2:15 AM 32.4 °F 29.1 °F 30.9 °F 94% 30.20 in 10.0 mi SW 3.5 mph - N/A   Clear
2:35 AM 32.2 °F - 31.1 °F 96% 30.20 in 10.0 mi Calm Calm - N/A   Clear
2:55 AM 32.7 °F - 31.6 °F 96% 30.20 in 10.0 mi Calm Calm - N/A   Clear
3:15 AM 32.5 °F - 31.3 °F 95% 30.19 in 10.0 mi Calm Calm - N/A   Clear
3:35 AM 32.9 °F - 31.6 °F 95% 30.19 in 10.0 mi Calm Calm - N/A   Clear
3:55 AM 32.2 °F - 30.9 °F 95% 30.18 in 10.0 mi Calm Calm - N/A   Clear
4:15 AM 32.0 °F - 30.6 °F 94% 30.18 in 10.0 mi Calm Calm - N/A   Clear
4:35 AM 30.6 °F - 29.3 °F 95% 30.17 in 10.0 mi Calm Calm - N/A   Clear
4:55 AM 30.9 °F - 29.5 °F 94% 30.17 in 10.0 mi Calm Calm - N/A   Clear
5:15 AM 31.5 °F - 30.0 °F 94% 30.16 in 10.0 mi Calm Calm - N/A   Clear
5:35 AM 30.7 °F - 29.7 °F 96% 30.16 in 10.0 mi Calm Calm - N/A   Clear
5:55 AM 30.0 °F - 28.4 °F 94% 30.16 in 10.0 mi Calm Calm - N/A   Clear
6:15 AM 29.8 °F - 28.4 °F 94% 30.16 in 10.0 mi Calm Calm - N/A   Clear
6:35 AM 29.1 °F - 26.8 °F 91% 30.16 in 10.0 mi Calm Calm - N/A   Clear
6:55 AM 28.2 °F - 26.8 °F 94% 30.16 in 10.0 mi Calm Calm - N/A   Clear
7:15 AM 29.7 °F 26.1 °F 28.2 °F 94% 30.15 in 10.0 mi SW 3.5 mph - N/A   Clear
7:35 AM 30.0 °F - 28.2 °F 93% 30.15 in 10.0 mi Calm Calm - N/A   Clear
7:55 AM 28.8 °F - 27.1 °F 94% 30.15 in 10.0 mi Calm Calm - N/A   Clear
8:15 AM 30.0 °F - 28.4 °F 94% 30.15 in 10.0 mi Calm Calm - N/A   Clear
8:35 AM 30.2 °F - 28.2 °F 92% 30.15 in 10.0 mi Calm Calm - N/A   Clear
8:55 AM 30.6 °F - 28.8 °F 93% 30.15 in 10.0 mi Calm Calm - N/A   Clear
9:15 AM 32.9 °F - 31.1 °F 93% 30.15 in 10.0 mi Calm Calm - N/A   Clear
9:35 AM 35.8 °F - 32.5 °F 88% 30.14 in 10.0 mi Calm Calm - N/A   Clear
9:55 AM 39.2 °F - 34.7 °F 84% 30.14 in 10.0 mi Calm Calm - N/A   Clear
10:15 AM 42.4 °F - 35.6 °F 77% 30.13 in 10.0 mi Calm Calm - N/A   Clear
10:35 AM 46.9 °F - 36.7 °F 68% 30.13 in 10.0 mi Calm Calm - N/A   Clear
10:55 AM 51.8 °F - 37.4 °F 58% 30.12 in 10.0 mi Calm Calm - N/A   Clear
11:15 AM 58.1 °F - 36.1 °F 44% 30.11 in 10.0 mi Calm Calm - N/A   Clear
11:35 AM 63.0 °F - 32.5 °F 32% 30.10 in 10.0 mi SSW 10.4 mph - N/A   Clear
11:55 AM 64.9 °F - 30.9 °F 28% 30.09 in 10.0 mi SW 8.1 mph - N/A   Clear
12:15 PM 66.2 °F - 28.2 °F 24% 30.09 in 10.0 mi SW 6.9 mph - N/A   Clear
12:35 PM 68.5 °F - 26.1 °F 20% 30.07 in 10.0 mi SW 9.2 mph - N/A   Clear
12:55 PM 70.0 °F - 21.6 °F 16% 30.06 in 10.0 mi SSW 8.1 mph - N/A   Clear
1:15 PM 71.4 °F - 24.6 °F 17% 30.05 in 10.0 mi SW 12.7 mph 17.3 mph N/A   Clear
1:35 PM 72.1 °F - 23.7 °F 16% 30.03 in 10.0 mi SSW 11.5 mph 17.3 mph N/A   Clear
1:55 PM 73.4 °F - 26.6 °F 18% 30.02 in 10.0 mi SW 9.2 mph - N/A   Clear
2:15 PM 73.8 °F - 26.8 °F 17% 30.00 in 10.0 mi SW 9.2 mph 16.1 mph N/A   Clear
2:35 PM 74.3 °F - 26.1 °F 17% 29.98 in 10.0 mi SSW 12.7 mph 18.4 mph N/A   Clear
2:55 PM 75.2 °F - 27.0 °F 17% 29.97 in 10.0 mi SW 13.8 mph 17.3 mph N/A   Clear
3:15 PM 75.7 °F - 27.1 °F 17% 29.96 in 10.0 mi SW 10.4 mph 16.1 mph N/A   Clear
3:35 PM 75.9 °F - 27.1 °F 16% 29.95 in 10.0 mi SSW 13.8 mph 19.6 mph N/A   Clear
3:55 PM 75.7 °F - 27.0 °F 16% 29.94 in 10.0 mi SSW 16.1 mph 20.7 mph N/A   Clear
4:15 PM 76.1 °F - 27.3 °F 17% 29.94 in 10.0 mi SSW 13.8 mph 17.3 mph N/A   Clear
4:35 PM 75.2 °F - 27.7 °F 17% 29.93 in 10.0 mi SSW 13.8 mph 27.6 mph N/A   Clear
4:55 PM 75.2 °F - 27.3 °F 17% 29.93 in 10.0 mi SSW 17.3 mph 21.9 mph N/A   Clear
5:15 PM 75.2 °F - 28.0 °F 18% 29.92 in 10.0 mi South 13.8 mph 19.6 mph N/A   Clear
5:35 PM 73.8 °F - 27.0 °F 18% 29.92 in 10.0 mi SSW 13.8 mph - N/A   Clear
5:55 PM 72.7 °F - 27.0 °F 18% 29.91 in 10.0 mi South 16.1 mph 20.7 mph N/A   Clear
6:15 PM 71.4 °F - 27.3 °F 19% 29.91 in 10.0 mi South 9.2 mph - N/A   Clear
6:35 PM 68.4 °F - 28.4 °F 22% 29.91 in 10.0 mi South 10.4 mph - N/A   Clear
6:55 PM 67.5 °F - 29.1 °F 24% 29.91 in 10.0 mi South 9.2 mph - N/A   Clear
7:15 PM 65.7 °F - 29.3 °F 26% 29.91 in 10.0 mi South 15.0 mph - N/A   Clear
7:35 PM 64.8 °F - 29.1 °F 26% 29.91 in 10.0 mi South 11.5 mph - N/A   Clear
7:55 PM 64.0 °F - 29.8 °F 28% 29.91 in 10.0 mi South 16.1 mph 23.0 mph N/A   Clear
8:15 PM 63.0 °F - 30.2 °F 29% 29.91 in 10.0 mi South 15.0 mph 21.9 mph N/A   Clear
8:35 PM 63.0 °F - 30.6 °F 30% 29.91 in 10.0 mi South 17.3 mph 20.7 mph N/A   Clear
8:55 PM 62.6 °F - 30.7 °F 30% 29.92 in 10.0 mi South 18.4 mph 24.2 mph N/A   Clear
9:15 PM 61.9 °F - 30.9 °F 31% 29.92 in 10.0 mi South 18.4 mph 25.3 mph N/A   Clear
9:35 PM 60.8 °F - 31.1 °F 33% 29.92 in 10.0 mi South 16.1 mph - N/A   Clear
9:55 PM 60.8 °F - 31.6 °F 33% 29.92 in 10.0 mi South 18.4 mph 24.2 mph N/A   Clear
10:15 PM 60.8 °F - 32.2 °F 34% 29.92 in 10.0 mi South 16.1 mph 26.5 mph N/A   Clear
10:35 PM 60.3 °F - 32.7 °F 35% 29.93 in 10.0 mi South 15.0 mph 25.3 mph N/A   Clear
10:55 PM 59.0 °F - 33.4 °F 38% 29.93 in 10.0 mi South 16.1 mph 21.9 mph N/A   Clear
11:15 PM 58.1 °F - 34.7 °F 41% 29.94 in 10.0 mi South 11.5 mph - N/A   Clear
11:35 PM 57.4 °F - 36.5 °F 46% 29.94 in 10.0 mi South 10.4 mph - N/A   Clear
11:55 PM 57.6 °F - 38.1 °F 48% 29.94 in 10.0 mi SSW 16.1 mph 20.7 mph N/A   Clear